Probability
26 25 26 26 28 33 37 37 35 35 39 42 42 36 29 22 16 14 12 12 11 10 11 11 8 5 3 1 0 0 0 0 1 2 2 1 0 0 0 0 0 0 0
21 21 22 22 21 24 28 28 27 28 29 32 34 31 26 20 15 11 8 7 7 7 8 7 6 3 1 0 0 0 1 1 1 2 2 2 1 0 0 0 0 0 0
15 15 16 15 12 13 15 16 17 17 18 20 23 25 22 16 10 6 3 2 3 3 3 3 3 2 0 0 0 0 1 1 1 1 2 2 1 0 0 0 0 0 0
11 10 10 9 7 6 7 10 12 12 12 13 17 20 17 11 5 2 0 0 1 1 1 1 1 1 0 0 0 0 1 1 0 0 1 1 0 0 0 0 0 0 0
6 5 4 4 4 4 4 6 9 10 10 10 11 12 10 6 2 0 0 0 0 0 0 0 0 0 0 0 0 0 0 0 0 0 0 0 0 0 1 0 0 0 0
1 1 1 1 3 3 3 4 6 7 7 6 5 4 3 2 1 0 0 0 0 0 0 0 0 0 0 0 0 0 0 0 0 0 0 0 0 0 0 0 0 0 0
0 0 0 1 2 2 2 2 3 3 3 2 2 1 0 0 0 0 0 0 0 0 0 0 0 0 0 0 0 0 0 0 0 0 0 0 0 0 0 0 0 0 0
0 0 0 0 1 1 1 1 1 1 0 1 1 0 0 0 0 0 0 0 0 0 0 0 0 0 0 0 0 0 0 0 0 0 0 0 0 0 0 0 0 0 0
0 0 0 0 0 0 0 0 0 0 0 0 0 0 0 0 0 0 0 0 0 0 0 0 0 0 0 0 0 0 0 0 0 0 0 0 0 0 0 0 0 0 0
0 0 0 0 0 0 0 0 0 0 0 0 0 0 0 0 0 0 0 0 0 0 0 0 0 0 0 0 0 0 0 0 0 0 0 0 0 0 0 0 0 0 0
0 0 0 0 0 0 0 0 0 0 0 0 0 0 0 0 0 0 0 0 0 0 0 0 0 0 0 0 0 0 0 0 0 0 0 0 0 0 0 0 0 0 0
0 0 0 0 0 0 0 0 0 0 0 0 0 0 0 0 0 0 0 0 0 0 0 0 0 0 0 0 0 0 0 0 0 0 0 0 0 0 0 0 0 0 0
0 0 0 0 0 0 0 0 0 0 0 0 0 0 0 0 0 0 0 0 0 0 0 0 0 0 0 0 0 0 0 0 0 0 0 0 0 0 0 0 0 0 0
0 0 0 0 0 0 0 0 0 0 0 0 0 0 0 0 0 0 0 0 0 0 0 0 0 0 0 0 0 0 0 0 0 0 0 0 0 0 0 0 0 0 0
0 0 0 0 0 0 0 0 0 0 0 0 0 0 0 0 0 0 0 0 0 0 0 0 0 0 0 0 0 0 0 0 0 0 0 0 0 0 0 0 0 0 0
0 0 0 0 0 0 0 0 0 0 0 0 0 0 0 0 0 0 0 0 0 0 0 0 0 0 0 0 0 0 0 0 0 0 0 0 0 0 0 0 0 0 0
0 0 0 0 0 0 0 0 0 0 0 0 0 0 0 0 0 0 0 0 0 0 0 0 0 0 0 0 0 0 0 0 0 0 0 0 0 0 0 0 0 0 0
0 0 0 0 0 0 0 0 0 0 0 0 0 0 0 0 0 0 0 0 0 0 0 0 0 0 0 0 0 0 0 0 0 0 0 0 0 0 0 0 0 0 0
0 0 0 0 0 0 0 0 0 0 0 0 0 0 0 0 0 0 0 0 0 0 0 0 0 0 0 0 0 0 0 0 0 0 0 0 0 0 0 0 0 0 0
0 0 0 0 0 0 0 0 0 0 0 0 0 0 0 0 0 0 0 0 0 0 0 0 0 0 0 0 0 0 0 0 0 0 0 0 0 0 0 0 0 0 0
0 0 0 0 0 0 0 0 0 0 0 0 0 0 0 0 0 0 0 0 0 0 0 0 0 0 0 0 0 0 0 0 0 0 0 0 0 0 0 0 0 0 0
0 0 0 0 0 0 0 0 0 0 0 0 0 0 0 0 0 0 0 0 0 0 0 0 0 0 0 0 0 0 0 0 0 0 0 0 0 0 0 0 0 0 0
0 0 0 0 0 0 0 0 0 0 0 0 0 0 0 0 0 0 0 0 0 0 0 0 0 0 0 0 0 0 0 0 0 0 0 0 0 0 0 0 0 0 0
0 0 0 0 0 0 0 0 0 0 0 0 0 0 0 0 0 0 0 0 0 0 0 0 0 0 0 0 0 0 0 0 0 0 0 0 0 0 0 0 0 0 0
0 0 0 0 0 0 0 0 0 0 0 0 0 0 0 0 0 0 0 0 0 0 0 0 0 0 0 0 0 0 0 0 0 0 0 0 0 0 0 0 0 0 0
0 0 0 0 0 0 0 0 0 0 0 0 0 0 0 0 0 0 0 0 0 0 0 0 0 0 0 0 0 0 0 0 0 0 0 0 0 0 0 0 0 0 0
Wind_Speed
9 11 11 9 8 8 7 4 4 3 3 3 4 4 4 5 6 6 7 7 7 7 6 4 4 4 3 3 2 2 3 2 2 1 2 2 2 1 1 1 1 1 1
10 11 12 12 12 10 8 7 6 4 3 2 2 4 6 6 6 7 9 9 9 8 7 7 5 5 4 5 5 3 1 2 2 1 1 2 3 2 3 2 2 2 2
11 11 12 13 14 13 10 7 8 8 7 5 4 5 5 5 6 7 7 9 10 10 9 9 7 7 6 5 5 4 3 1 2 2 1 1 1 1 2 3 3 3 3
11 11 12 13 13 12 10 10 9 10 9 6 6 8 6 6 7 6 7 9 11 11 10 9 9 8 6 7 7 7 4 3 2 2 3 1 1 0 1 1 2 3 3
12 13 13 12 12 12 11 10 11 11 10 9 8 10 10 9 8 8 11 10 10 10 10 9 9 8 7 8 9 8 8 6 5 3 3 3 3 2 1 1 2 3 2
12 13 13 12 12 12 11 10 13 13 12 12 12 12 13 12 11 10 9 8 7 8 9 10 9 8 7 8 8 8 9 7 7 6 6 4 3 3 2 1 2 2 3
12 12 13 12 12 13 12 12 14 14 13 13 13 12 13 12 12 10 9 8 7 7 8 8 7 7 7 7 7 8 8 8 8 7 5 5 4 3 2 2 2 2 2
12 13 12 12 12 13 12 12 13 13 12 13 12 12 12 10 9 9 8 8 7 6 7 7 7 7 7 8 7 6 6 6 7 7 6 4 4 4 4 2 2 2 3
12 12 12 12 11 12 12 11 12 13 12 12 13 12 12 11 10 9 8 6 6 6 7 7 7 7 7 7 6 6 6 6 6 5 5 4 4 4 4 3 2 2 2
11 11 11 11 11 11 11 11 12 12 11 11 10 11 10 10 9 8 9 8 7 6 6 7 7 7 7 7 6 5 5 6 4 3 5 4 3 4 4 3 3 2 1
10 10 9 9 10 10 10 10 10 11 10 10 9 9 8 8 8 8 7 6 6 6 6 6 6 7 7 6 6 5 5 5 5 4 5 4 3 3 4 3 3 3 2
10 10 10 10 9 9 9 8 8 9 8 8 8 8 7 7 7 7 6 6 6 5 5 6 6 6 6 6 6 6 6 5 5 5 4 4 4 4 3 3 3 3 2
11 10 9 9 9 8 8 8 7 7 7 7 7 7 7 6 6 5 5 5 5 5 5 5 6 5 5 6 5 5 5 5 4 4 4 3 3 3 2 3 3 2 3
11 10 9 8 8 8 7 7 6 6 7 7 7 7 6 5 5 5 5 4 4 4 4 4 4 4 5 5 5 5 5 5 5 4 4 3 2 1 2 2 3 3 3
11 10 9 7 7 7 6 6 6 5 6 6 6 5 4 4 4 4 4 4 4 4 3 4 4 4 4 4 5 5 5 5 5 5 5 4 3 4 2 2 3 3 2
11 10 9 8 7 6 6 6 5 5 5 5 5 4 4 3 3 3 3 4 4 3 4 4 3 3 3 6 8 6 4 4 4 5 5 4 4 6 7 9 8 6 3
11 10 9 7 6 5 6 5 5 5 5 5 4 3 3 3 2 3 3 3 2 2 3 2 3 2 3 7 9 9 4 4 4 4 4 3 4 4 4 8 10 9 9
10 9 8 7 5 4 4 5 5 5 5 4 4 3 3 3 2 3 2 2 1 1 1 1 2 2 3 6 9 9 6 4 5 4 3 2 3 3 4 5 7 7 7
8 7 6 6 5 4 4 5 5 5 5 4 3 3 3 3 3 2 1 1 1 1 1 1 2 1 2 5 7 8 4 4 6 5 4 3 3 6 7 5 6 8 7
7 7 6 5 4 3 4 5 5 5 4 3 3 3 3 3 2 1 1 1 1 1 1 1 1 1 1 4 6 7 3 4 5 5 5 6 7 9 9 4 4 6 7
8 7 6 5 3 4 5 5 4 4 3 3 3 3 3 2 2 1 1 1 2 2 2 1 0 0 1 4 7 7 2 3 4 5 5 6 11 13 11 6 4 7 7
7 7 6 4 3 4 5 5 3 3 3 4 3 2 2 1 2 2 2 3 3 3 2 2 2 2 2 3 6 9 7 5 2 4 5 7 13 13 10 6 6 8 6
7 6 6 5 4 4 5 5 2 3 4 3 2 1 2 2 3 3 3 3 3 3 2 2 2 2 2 3 7 8 9 9 4 5 10 12 12 9 6 8 9 6 3
6 6 6 6 4 3 4 4 3 3 3 2 1 1 2 2 2 2 2 3 2 2 2 2 2 1 2 3 4 5 6 8 7 6 9 11 9 7 6 6 6 4 3
5 6 6 6 4 4 3 3 3 3 3 1 0 1 2 2 2 2 1 2 1 2 3 1 1 0 2 4 6 5 5 5 5 6 4 4 5 6 6 5 5 5 5
6 6 6 5 4 3 3 2 3 3 3 1 0 1 1 1 2 2 1 2 1 1 2 3 3 2 4 7 9 10 10 10 6 3 3 4 4 4 5 5 5 5 5
Wind_Direction
80 75 69 60 56 62 64 63 65 87 129 142 135 124 107 87 73 64 56 58 61 62 66 65 58 59 64 52 48 66 56 32 4 30 5 358 19 52 50 71 74 55 53
69 63 62 54 50 52 58 55 60 46 58 90 107 100 100 89 81 64 52 48 56 58 65 62 60 52 53 43 32 36 54 26 18 50 40 342 351 14 31 37 49 41 35
73 62 60 57 51 42 39 50 54 47 41 50 83 90 88 89 77 68 58 46 51 56 58 58 60 54 48 46 37 30 48 56 27 32 93 167 256 324 15 35 38 40 41
69 64 63 62 58 50 41 43 50 52 44 50 90 101 97 90 79 79 74 58 51 52 53 57 61 59 56 51 43 40 37 51 40 16 24 47 66 306 307 357 13 30 40
72 67 61 61 60 57 48 44 52 53 48 51 71 92 93 91 88 79 73 66 55 50 52 57 61 62 59 57 53 48 47 49 51 39 15 19 26 22 21 341 346 4 9
75 70 65 62 60 59 56 49 56 54 52 57 64 80 93 97 93 84 79 71 64 57 52 58 61 61 62 62 60 57 53 53 55 52 45 40 37 14 22 22 350 354 346
77 71 64 60 62 60 59 56 60 58 54 60 65 72 82 86 87 88 86 83 76 68 56 57 58 57 57 58 58 60 56 51 54 52 47 44 42 27 22 45 7 0 343
81 76 70 64 62 61 60 61 64 63 60 64 68 70 74 79 81 82 85 82 79 72 64 60 58 55 55 56 53 54 51 50 51 50 45 42 31 29 31 38 33 16 359
83 81 76 73 70 66 63 64 69 68 66 68 72 72 75 80 83 81 79 77 77 77 68 64 61 55 53 53 54 53 47 48 47 42 40 39 25 25 26 34 46 67 19
89 85 83 82 80 77 74 70 71 73 71 71 75 80 75 76 78 78 77 75 71 70 70 64 60 56 51 49 51 50 44 48 37 36 37 32 22 24 24 28 33 53 95
103 98 93 88 85 81 78 76 75 77 76 75 76 78 75 74 75 76 74 72 69 68 69 66 62 56 48 42 45 41 39 39 28 25 32 25 26 25 18 20 26 29 49
111 106 101 95 92 89 86 84 83 83 81 80 79 77 75 73 73 73 70 71 70 65 69 69 64 60 51 42 41 37 34 35 30 19 21 13 21 20 12 18 17 8 18
111 106 102 100 99 98 97 94 92 91 89 86 83 77 73 72 71 70 68 70 71 66 68 73 69 59 49 41 35 34 30 25 18 9 6 353 13 3 353 7 5 346 353
115 111 106 102 102 102 103 102 98 95 93 88 87 84 80 79 76 71 68 68 74 76 75 75 73 64 52 40 28 24 23 11 0 353 348 337 337 328 334 347 340 333 336
124 121 116 112 109 107 105 107 106 102 100 96 94 94 91 83 77 71 65 64 68 84 85 80 67 56 49 32 26 15 13 4 353 347 345 341 3 12 2 343 318 320 317
131 126 122 117 115 114 112 111 112 113 111 109 109 105 96 87 80 73 65 60 58 63 71 76 77 55 38 22 23 21 8 359 356 345 341 343 14 9 2 352 342 330 306
136 132 127 121 117 116 115 117 122 117 115 118 117 113 108 96 87 83 73 64 57 67 78 84 84 62 16 16 15 17 20 4 353 343 338 348 4 7 349 337 338 333 324
134 130 126 121 118 116 120 121 118 119 120 120 120 123 118 109 98 80 68 54 60 78 94 103 104 67 8 12 16 16 20 7 355 345 338 337 331 328 329 326 326 319 312
130 127 125 121 114 108 110 107 105 107 109 112 113 116 113 112 99 81 62 52 68 59 96 127 127 83 348 357 12 20 5 358 348 342 341 327 310 307 323 326 321 318 312
126 126 122 113 110 109 106 105 109 110 115 122 116 106 103 108 107 105 80 52 81 88 100 115 146 149 322 340 0 14 6 352 338 331 328 320 312 313 319 303 299 305 303
131 128 123 118 120 116 107 113 116 128 140 128 112 94 99 119 119 89 54 56 61 56 56 71 52 323 323 346 359 6 3 332 324 323 319 314 318 319 318 305 258 264 280
131 129 124 118 113 113 109 111 124 147 131 113 103 98 94 99 99 82 52 49 60 60 50 53 23 357 357 7 2 7 5 354 316 307 307 308 317 321 326 323 307 306 305
133 127 123 115 108 110 116 123 145 136 117 104 106 104 86 76 91 97 81 59 57 64 52 57 47 5 351 349 358 357 351 347 332 301 307 315 326 336 341 338 340 342 339
134 129 126 124 129 133 131 146 153 133 120 123 146 133 112 86 77 84 97 95 84 78 68 63 50 354 331 335 343 341 336 339 340 332 325 330 345 0 352 346 348 348 336
132 132 135 139 147 151 154 163 158 136 126 141 153 116 135 136 116 98 110 128 160 170 153 162 171 343 317 305 323 324 319 319 314 325 336 353 354 357 351 347 344 344 350
132 134 138 144 157 163 167 175 160 138 130 118 50 124 156 152 152 141 62 31 162 169 168 190 201 250 264 300 321 327 328 330 335 10 357 346 348 350 349 350 348 349 350